GFSFLT2_sfc_30mbdewp_198.txt.gz
Dewpoint
65 66 67 67 67 67 67 66 66 65 64 62 60 58 55 52 51 51 51 52 51 53 53 53 53 57 60 60 59 57 56 57
63 64 64 65 65 66 65 65 64 63 61 57 52 51 51 51 50 50 51 51 50 50 51 52 54 56 56 56 56 55 54 55
61 61 62 63 64 64 64 63 61 60 58 55 50 48 48 49 50 50 50 50 50 50 49 50 54 55 54 54 53 53 54 55
59 60 60 60 61 61 60 59 57 56 54 49 48 47 48 51 51 50 51 50 49 49 48 46 44 49 52 52 51 51 52 52
57 58 58 58 57 56 54 53 53 53 53 49 48 49 45 43 42 41 42 42 39 40 40 40 41 45 49 49 50 50 50 50
55 55 56 53 55 53 51 49 50 51 51 48 47 44 41 41 40 40 40 40 39 39 38 39 40 44 49 48 49 48 48 49
54 52 52 50 52 51 48 49 49 49 49 47 45 43 41 41 40 40 40 40 39 38 37 37 38 44 48 48 47 47 47 48
54 50 49 50 50 49 47 46 47 47 46 45 44 42 41 40 40 39 39 39 39 39 37 35 35 43 47 47 47 46 46 47
54 50 48 49 49 48 46 45 44 44 43 43 43 41 41 40 41 39 39 39 39 39 37 35 36 43 47 46 45 45 44 44
55 52 48 49 48 46 45 44 43 42 42 43 43 42 41 41 40 39 39 39 38 38 36 33 36 42 44 44 43 42 41 41
55 52 48 48 47 45 44 43 42 41 41 42 42 41 41 40 39 38 38 38 38 38 36 34 37 41 41 39 38 38 38 36
52 49 47 47 46 44 43 42 41 40 40 41 41 40 40 39 38 37 37 36 36 35 34 35 36 39 37 36 37 37 36 35
49 47 46 46 44 42 41 39 39 39 39 40 40 39 40 38 36 36 35 34 36 34 33 36 37 36 35 35 35 36 35 34
48 46 45 46 45 43 41 39 39 38 38 38 39 38 39 37 36 35 34 34 36 35 32 32 33 34 34 34 32 32 33 34
47 45 45 45 43 41 39 38 37 36 36 37 38 38 38 36 35 34 34 33 33 34 33 30 30 31 34 35 31 31 31 31
47 46 45 44 43 41 39 37 36 35 35 36 37 37 37 36 35 35 34 33 32 33 33 32 30 30 30 30 32 32 30 27
48 46 45 44 43 41 38 38 37 35 35 36 37 37 37 36 35 34 32 32 31 30 30 30 30 30 30 28 29 30 31 28
48 47 47 46 44 43 42 41 39 36 34 35 35 35 35 34 34 32 31 30 30 29 27 26 27 28 29 28 28 29 29 27
48 48 48 47 46 44 43 41 39 37 34 34 34 34 32 32 33 31 30 30 29 28 25 24 25 26 27 27 27 26 27 27
49 49 46 48 47 45 43 42 39 36 34 34 34 34 32 31 32 31 30 29 28 27 26 25 25 25 25 25 25 25 26 26

GFSFLT2_sfc_30mbdewp_204.txt.gz
Dewpoint
64 65 66 67 67 67 67 67 66 66 65 65 64 62 59 55 54 54 54 55 55 55 58 61 60 61 61 60 59 59 54 55
64 63 64 65 66 67 67 66 65 65 64 62 61 57 55 54 55 54 55 55 55 55 59 60 60 60 59 58 57 57 53 53
65 64 64 65 65 67 66 66 65 63 61 58 56 55 53 51 54 55 53 54 54 56 58 58 58 57 56 55 55 50 49 49
64 65 65 66 66 67 66 65 63 61 58 54 55 54 49 49 53 55 53 52 52 56 57 56 52 48 49 50 47 48 47 52
63 64 65 64 64 64 63 62 61 59 55 53 51 50 52 52 53 52 49 50 44 46 49 43 44 44 45 46 47 45 47 50
63 63 63 63 62 62 61 60 59 56 52 51 51 50 51 50 47 46 43 41 41 41 41 46 47 47 47 46 45 46 48 49
61 62 62 62 62 60 59 58 58 56 53 52 50 49 51 47 45 44 42 41 42 41 43 46 47 47 46 46 46 47 46 47
60 61 61 61 60 59 58 57 57 56 53 52 52 52 50 46 45 43 42 41 40 40 41 45 45 46 46 46 45 44 45 46
60 60 60 60 60 59 57 55 54 55 55 52 51 51 50 46 43 42 41 41 41 40 42 44 45 45 45 46 45 44 45 44
60 60 59 59 59 59 58 56 54 54 53 50 49 48 47 46 43 42 42 42 40 40 41 44 44 44 44 43 43 43 44 43
59 60 58 58 57 56 54 52 52 51 49 48 49 48 47 45 43 42 45 41 40 39 40 44 44 43 43 43 43 42 41 39
59 59 59 57 54 52 50 49 49 48 47 46 48 47 46 45 42 43 43 40 40 38 40 43 44 43 40 41 40 40 39 36
59 59 58 55 52 49 48 47 47 46 45 46 47 46 46 45 42 43 41 39 40 40 42 44 43 41 40 39 39 38 37 35
57 58 58 54 51 49 48 48 46 45 44 46 46 45 45 44 42 41 40 39 40 41 42 43 41 41 38 37 35 35 35 34
55 57 55 52 49 49 48 46 45 43 43 44 43 43 44 43 42 40 40 39 40 41 42 41 40 40 38 35 33 31 33 34
54 52 50 49 48 47 45 44 42 42 41 41 41 42 41 41 41 40 39 39 38 40 41 41 40 40 39 38 40 35 31 31
51 48 47 47 47 46 44 42 41 41 41 40 40 41 40 39 39 39 38 37 39 38 39 40 39 38 39 37 37 36 35 30
49 48 47 46 45 44 43 43 43 42 42 42 42 43 42 41 40 38 38 37 38 39 39 39 39 39 38 37 36 34 34 31
49 48 47 46 46 45 45 45 45 44 43 43 42 41 40 40 40 39 37 36 36 35 36 37 37 37 39 37 36 35 34 32
49 48 47 47 47 48 48 47 47 46 45 44 43 41 40 41 40 39 36 35 34 33 32 32 33 35 35 35 34 35 35 34

GFSFLT2_sfc_30mbdewp_207.txt.gz
Dewpoint
65 65 66 68 68 68 67 66 66 67 66 66 65 64 62 59 56 55 55 56 56 57 61 59 60 62 61 60 59 56 54 56
64 63 64 65 66 67 67 67 66 66 65 64 62 60 57 56 56 55 56 56 56 59 61 61 61 60 59 58 55 53 50 52
64 63 62 63 64 66 66 66 65 64 64 62 60 59 56 53 55 56 56 56 56 59 61 60 59 58 57 57 56 49 48 49
63 63 62 62 62 66 66 66 65 64 62 61 60 58 56 52 54 56 55 56 57 58 59 58 56 53 51 52 47 46 51 52
64 65 65 65 66 66 66 66 64 62 61 59 58 57 53 51 52 50 51 52 51 54 53 50 46 44 43 45 46 46 49 56
63 64 65 66 66 65 64 62 62 61 59 58 56 55 54 52 51 48 47 45 43 44 45 46 46 45 46 46 45 47 51 53
62 63 65 65 64 63 63 62 61 60 56 54 55 55 54 52 49 47 44 42 42 42 41 46 46 47 46 45 46 48 51 51
63 63 63 64 63 63 62 62 61 59 56 54 54 55 53 51 49 47 43 41 42 41 43 45 45 45 46 46 47 47 49 49
61 63 63 64 63 62 62 61 60 59 57 55 54 54 53 49 48 48 44 42 41 41 43 45 45 45 45 45 45 45 46 46
60 61 62 62 62 62 60 59 58 57 57 54 53 54 52 50 49 47 44 43 42 41 42 44 44 44 45 44 44 44 45 44
58 61 61 61 62 61 61 59 58 57 56 55 55 53 50 48 48 46 44 43 42 41 41 44 44 44 44 43 43 43 43 41
58 59 61 60 60 60 59 58 56 56 55 53 52 51 49 49 48 45 46 43 41 40 41 44 44 43 41 42 42 41 39 37
58 60 60 60 58 56 54 53 53 52 51 50 50 50 49 49 47 45 46 43 42 44 43 45 45 45 41 41 41 41 38 35
55 59 60 59 57 55 54 52 51 50 49 49 48 49 48 48 47 44 46 42 43 44 44 45 45 44 41 39 37 37 37 35
54 55 59 57 55 52 50 49 49 48 47 47 48 48 48 47 46 45 44 42 43 45 44 46 44 43 42 38 35 34 35 35
54 55 55 54 51 50 49 47 46 45 46 45 45 45 45 43 44 42 44 43 43 45 44 46 44 42 43 39 42 38 33 34
52 52 52 51 51 49 47 46 44 43 43 42 42 43 42 41 41 41 40 40 43 43 44 45 44 43 41 40 40 38 36 32
50 50 49 49 50 48 46 44 42 42 42 42 42 42 42 42 43 42 43 42 42 44 43 45 44 43 42 41 39 38 36 34
49 49 49 49 49 48 48 46 45 43 43 43 42 42 43 44 45 43 43 42 41 43 43 43 43 43 43 41 40 38 36 34
45 47 48 49 49 48 48 47 47 46 46 45 44 44 43 43 43 42 41 40 40 40 40 42 43 42 42 42 39 38 37 35

GFSFLT2_sfc_30mbdewp_210.txt.gz
Dewpoint
66 66 67 68 68 68 68 67 66 67 67 67 66 65 65 63 61 58 57 57 57 57 60 59 60 62 62 61 60 57 61 59
65 66 67 68 68 68 67 66 67 67 66 65 64 63 61 59 58 57 57 57 57 61 61 61 61 61 60 60 57 56 57 57
64 64 66 67 67 67 67 67 66 66 65 64 62 62 58 57 56 57 58 58 58 61 61 61 60 58 58 58 58 54 53 55
64 63 64 65 65 67 67 66 66 65 64 62 62 62 58 55 57 58 58 57 59 60 61 59 57 57 56 55 54 53 53 54
63 64 64 64 63 67 67 67 66 65 64 62 62 61 55 56 56 55 56 57 57 59 60 58 56 52 49 50 49 57 57 57
62 64 64 65 66 67 66 66 65 64 62 62 60 59 55 55 54 52 52 52 51 52 53 54 53 49 49 48 49 55 52 52
63 65 67 67 66 65 65 64 63 62 60 59 58 57 56 56 55 52 50 48 49 49 48 49 48 49 48 47 54 52 51 50
62 64 66 66 65 65 64 63 62 61 59 57 57 57 57 56 54 52 50 47 48 46 46 48 49 48 48 47 52 52 50 48
62 63 65 64 65 64 63 63 62 60 58 57 56 57 56 55 53 51 49 47 46 46 48 49 49 48 48 49 49 51 50 47
62 64 64 64 64 64 63 62 62 60 59 56 55 56 54 52 50 50 50 48 45 45 47 48 48 47 48 47 47 48 48 46
62 63 64 64 64 64 62 61 60 60 59 57 55 54 55 54 51 50 50 48 45 46 46 48 47 47 47 46 46 46 46 44
62 63 62 63 63 63 62 61 60 59 58 56 55 54 55 54 51 50 51 47 46 46 45 48 48 47 44 45 45 45 42 38
62 62 62 62 61 60 58 57 58 58 58 57 56 55 54 53 51 50 51 47 46 46 46 46 48 47 45 45 45 44 39 38
60 60 60 61 59 58 56 56 55 54 54 54 55 54 53 51 51 50 49 48 47 46 45 46 48 47 44 42 40 40 39 37
55 56 59 60 57 56 52 51 50 50 50 50 51 52 52 51 51 51 50 48 47 47 46 46 47 46 44 41 39 37 38 38
54 56 57 57 55 53 52 51 50 49 47 47 46 46 45 45 45 44 43 48 47 47 47 47 48 44 44 41 41 40 36 34
52 52 52 54 54 53 53 51 49 46 45 44 44 44 44 44 44 44 44 45 46 47 47 46 48 45 43 41 42 41 37 36
49 50 50 51 51 51 50 50 46 44 43 43 43 43 44 43 44 44 44 45 45 47 47 48 48 48 47 45 41 39 37 36
45 47 49 51 50 49 49 49 46 44 43 43 43 43 42 43 44 44 44 44 45 46 46 46 47 47 48 47 45 44 43 39
45 45 46 48 51 50 49 48 48 46 45 44 44 43 43 44 45 44 44 44 44 44 45 45 46 45 45 48 46 46 44 42

GFSFLT2_sfc_30mbdewp_216.txt.gz
Dewpoint
69 69 69 69 70 69 69 68 68 68 68 67 66 65 64 63 63 63 62 61 59 58 57 55 54 60 62 61 62 62 63 64
68 69 69 69 69 68 68 67 67 67 67 66 65 64 64 62 62 61 60 59 58 58 58 56 57 59 61 61 61 60 62 62
67 68 68 68 68 68 67 67 67 67 67 66 64 63 62 62 60 59 59 59 59 60 59 59 58 59 60 58 59 61 61 60
66 66 67 67 67 67 66 67 67 66 65 64 62 61 60 60 59 59 59 59 60 61 61 60 59 56 58 57 57 59 59 58
65 66 66 67 67 66 66 66 65 65 64 63 62 60 60 58 57 59 59 59 59 61 60 59 57 55 54 55 57 58 57 56
64 65 66 66 67 66 66 65 64 64 63 62 61 60 58 57 57 57 57 58 57 58 56 56 56 54 54 57 57 55 55 55
64 64 65 66 66 66 65 65 65 64 63 62 62 60 57 56 55 56 55 55 55 54 53 53 55 53 55 54 53 52 53 53
63 64 64 65 66 66 66 66 65 64 64 63 62 61 57 56 54 54 54 53 53 52 50 50 52 53 53 52 51 50 51 51
63 63 64 65 65 65 65 65 64 63 63 62 61 59 58 57 56 53 53 52 51 50 50 48 48 52 52 51 50 49 48 48
63 65 65 65 65 65 64 64 63 62 61 61 60 58 58 58 57 56 54 52 50 49 48 48 47 50 51 50 49 48 47 47
62 65 65 64 64 64 64 63 63 62 61 60 59 59 59 58 57 56 54 51 50 49 48 48 48 49 51 50 48 47 45 45
62 64 64 64 64 64 63 63 62 62 61 60 59 58 57 57 56 54 54 52 52 52 48 50 50 49 50 50 49 47 44 42
62 62 63 63 62 62 62 61 61 61 61 60 59 58 57 56 56 55 54 53 53 53 52 50 50 50 47 48 44 46 42 39
62 62 62 62 61 60 59 59 59 59 60 60 59 57 57 56 55 55 54 53 53 52 51 50 51 50 47 45 40 39 38 39
61 61 61 60 58 56 54 53 53 53 54 54 51 52 56 56 55 55 54 52 52 52 51 51 49 51 50 46 41 39 36 38
58 58 57 56 56 55 55 54 53 51 49 47 46 46 48 50 51 51 49 50 51 51 51 50 50 49 50 50 49 42 37 35
53 55 55 55 54 53 53 52 51 49 47 46 46 45 45 46 47 47 47 47 48 49 49 49 50 48 49 49 47 45 43 37
48 48 51 53 52 51 49 49 49 48 47 46 45 44 45 45 46 47 47 47 48 48 49 50 50 50 50 49 47 44 42 39
49 49 48 50 50 49 49 48 48 48 47 46 45 44 44 44 45 45 46 47 47 48 48 48 49 50 50 49 47 46 43 40
45 47 48 49 50 49 49 49 48 47 46 45 45 45 44 44 44 44 44 44 45 46 47 47 47 48 48 49 48 46 44 41